This demonstration page uses our WeatherBlox Daily Observations layout. Learn more.

39.92423, -83.80882

Hourly Observations for August 5, 2018

Temp ( °F °C ) Dew Point ( °F °C ) Humidity (%) Winds ( mph kmh ) Pressure ( in mb ) Visibility ( mi km ) Precip ( " mm )
12:56 am 00:56 Clear 71 21.7 68 20 90 90 Calm 30.17 1022 10 16.0934 0 0
1:56 am 01:56 Clear 69 20.6 67 19.4 93 93 SW 5 7 30.16 1021 10 16.0934 0 0
2:56 am 02:56 Clear 69 20.6 67 19.4 93 93 SW 3 6 30.16 1022 10 16.0934 0 0
3:56 am 03:56 Clear 67 19.4 66 18.9 97 97 Calm 30.17 1022 10 16.0934 0 0
4:56 am 04:56 Clear 66 18.9 66 18.9 100 100 Calm 30.17 1022 9 14.48406 0 0
5:56 am 05:56 Clear 66 18.9 66 18.9 100 100 Calm 30.18 1022 9 14.48406 0 0
6:56 am 06:56 Partly Cloudy with Mist and Fog 65 18.3 65 18.3 100 100 ESE 3 6 30.19 1022 5 8.0467 0 0
7:56 am 07:56 Sunny 70 21.1 70 21.1 100 100 Calm 30.21 1023 8 12.87472 0 0
8:56 am 08:56 Sunny 76 24.4 72 22.2 88 88 SSW 5 7 30.22 1023 10 16.0934 0 0
9:56 am 09:56 Sunny 79 26.1 72 22.2 79 79 SW 8 13 30.23 1024 10 16.0934 0 0
10:56 am 10:56 Sunny 82 27.8 74 23.3 77 77 SSW 6 9 30.22 1024 10 16.0934 0 0
11:56 am 11:56 Sunny 84 28.9 74 23.3 72 72 WSW 8 13 30.22 1024 10 16.0934 0 0
12:56 pm 12:56 Sunny 83 28.3 74 23.3 74 74 SW 7 11 30.21 1023 10 16.0934 0 0
1:56 pm 13:56 Sunny 80 26.7 72 22.2 76 76 SW 8 13 30.2 1023 10 16.0934 0 0
2:56 pm 14:56 Sunny 86 30 72 22.2 63 63 S 7 11 30.16 1022 10 16.0934 0 0
3:56 pm 15:56 Sunny 87 30.6 72 22.2 61 61 SSW 7 11 30.16 1021 10 16.0934 0 0
4:56 pm 16:56 Sunny 84 28.9 74 23.3 72 72 SSW 5 7 30.15 1021 10 16.0934 0 0
5:56 pm 17:56 Sunny 83 28.3 74 23.3 74 74 S 3 6 30.13 1020 10 16.0934 0 0
6:56 pm 18:56 Sunny 84 28.9 74 23.3 72 72 S 3 6 30.13 1020 10 16.0934 0 0
7:56 pm 19:56 Sunny 80 26.7 74 23.3 82 82 Calm 30.14 1021 10 16.0934 0 0
8:56 pm 20:56 Clear 78 25.6 74 23.3 87 87 Calm 30.14 1021 10 16.0934 0 0
9:56 pm 21:56 Clear 77 25 72 22.2 85 85 S 3 6 30.15 1021 10 16.0934 0 0
10:56 pm 22:56 Clear 74 23.3 72 22.2 94 94 S 5 7 30.16 1021 10 16.0934 0 0
11:56 pm 23:56 Clear 71 21.7 71 21.7 100 100 SSW 3 6 30.16 1022 10 16.0934 0 0

Powered by AerisWeather